Location: Malanoce
(44.2500°N, 7.4667°E)
Time: 20:58:53
(UTC+00:00)

Cosmos 1400 Rocket - Pass Details

Date: 17 November 2025
Orbit: 476 x 514 km, 81.1° (Epoch: 11 December)

Event Time Altitude Azimuth Distance (km) Brightness Sun altitude
Rises 17:22:53 0° 171° (S) 2,619 6.3 -14.6°
Reaches altitude 10° 17:25:06 10° 164° (SSE) 1,735 5.3 -15.0°
Maximum altitude 17:28:40 39° 95° (E) 781 3.1 -15.6°
Enters shadow 17:30:04 28° 49° (NE) 989 3.6 -15.8°
